Weather in Byas'-Kyuel'

Russia / Sakha (Yakutia) Republic     59°28′24″N   119°18′08″E
temp.,
°C
wind,
m/s
gust,
m/s
humid.,
%
clouds,
%
prec.,
mm/h
press.,
hPa
HPBL,
m
1 july, fri
fri100:00+16w1195100 1.1 100516
03:00+15nw239993 7.7 1005107
06:00+15e0096100 0.4 100623
09:00+15nne1396100 0.8 1007196
12:00+23ne135794 0.0 1007833
15:00+26e224432 0.0 10051668
18:00+26ese334959 0.0 10041512
21:00+22ne11692 0.0 100411
2 july, sat
sat200:00+19ese118490 0.0 100419
03:00+16nne2297100 0.0 100335
06:00+18nne1288100 0.1 100396
09:00+18ene1194100 0.6 100252
12:00+20n128867 0.2 1001288
15:00+25wnw126697 0.3 999785
18:00+25n2165100 0.1 999709
21:00+22ne11836 0.1 99822
3 july, sun
sun300:00+18ene119628 0.0 99911
03:00+17sse11970 0.0 99811
06:00+19sse119291 0.0 99854
09:00+25sse226233 0.0 997414
12:00+32ssw23369 0.0 9961369
15:00+34ssw22285 0.0 9962502
18:00+34sse22310 0.0 9952117
21:00+27w125454 0.0 99630
4 july, mon
mon400:00+21nw35818 0.0 997128
03:00+18nnw2297100 0.0 99846
06:00+19nw4108562 0.0 1000629
09:00+20nw477695 0.0 1001733
12:00+19nw3579100 0.2 1002662
15:00+19nw3581100 0.5 1002559
18:00+18nw248698 0.3 1001414
21:00+17nw1290100 0.4 100193
5 july, tue
tue500:00+16wnw1199100 2.3 99935
03:00+16w1299100 4.4 998104
06:00+16wsw1399100 1.5 998181
09:00+16wnw3796100 1.9 999621
12:00+16wnw4894100 0.2 1001698
15:00+21nw576591 0.4 10031296
18:00+19nw367444 0.4 1004946
21:00+18nnw247570 0.4 1006145